Wind_Speed
4 11 10 15 20 20 18 16 17 13 5 9 9 10 11 12 18 37 35 30 38 23 26 30 32 25 30 29 25 18 14 15 20 23 22 19 20 22 19 17 16 14 12 10
14 9 12 15 18 21 18 20 17 16 8 16 13 20 38 8 9 21 26 26 25 25 19 23 24 22 18 21 21 17 24 20 20 20 23 27 26 19 21 22 16 13 10 10
13 7 14 9 10 14 15 9 5 12 10 9 10 18 3 8 5 10 15 15 18 19 14 17 20 23 27 27 23 21 17 17 18 17 24 35 32 29 21 19 16 17 19 19
7 10 11 9 17 17 20 20 19 25 17 17 16 24 18 12 8 4 15 15 12 15 19 16 14 13 15 17 18 14 12 12 12 11 14 17 21 23 21 22 17 17 17 15
1 3 17 1 8 12 14 18 16 17 15 12 17 14 7 9 11 12 13 13 12 16 15 19 19 19 20 19 19 18 14 10 9 8 7 8 8 9 16 11 15 7 2 1
1 5 1 12 15 22 19 6 23 11 18 10 9 2 3 8 14 13 9 11 15 15 15 16 20 24 22 20 18 16 15 11 9 8 6 5 4 10 14 14 11 12 12 12
11 3 3 9 18 13 7 7 16 20 5 13 8 4 13 16 15 10 8 14 13 14 16 19 24 25 19 16 15 16 15 15 14 11 11 10 10 11 11 10 11 12 12 11
6 4 3 13 15 0 2 4 9 14 8 5 18 18 17 15 10 9 13 15 13 14 14 13 13 15 16 15 13 14 16 17 16 16 13 10 12 12 13 12 8 7 7 6
7 3 4 7 11 8 8 6 8 9 3 13 11 15 12 13 9 14 16 17 18 19 20 16 14 13 18 18 17 17 16 16 16 16 15 10 10 6 8 10 10 9 8 5
8 10 11 9 6 6 7 7 8 8 12 9 14 13 14 11 18 19 18 20 19 19 19 18 15 14 13 15 14 13 12 12 13 14 14 16 16 12 13 13 11 9 11 6
6 6 8 5 6 4 5 6 7 6 6 6 13 14 17 22 19 19 18 16 16 15 15 14 12 12 12 11 10 10 10 9 8 8 11 14 14 14 14 14 15 13 14 12
3 8 4 6 4 1 3 4 5 5 7 5 9 12 16 24 22 20 20 20 19 17 14 13 11 11 11 11 9 9 8 8 8 4 6 12 16 12 11 15 15 13 12 9
4 2 0 3 1 1 3 3 2 1 6 7 7 9 16 18 18 21 19 17 17 16 15 14 12 11 10 13 16 13 9 13 13 7 7 4 6 10 9 11 14 13 11 8
5 5 5 8 6 5 3 2 2 4 9 11 7 9 14 20 22 22 20 16 14 14 13 11 9 9 10 9 14 12 14 15 17 9 6 4 3 2 4 6 6 6 6 6
6 5 9 1 4 4 5 6 7 6 13 13 11 9 17 23 22 19 16 16 12 9 5 5 2 3 3 6 9 9 11 14 12 13 14 13 11 6 3 5 1 2 4 3
8 7 6 7 7 7 7 8 9 9 12 13 13 12 15 20 18 18 20 21 19 15 14 12 8 9 9 10 11 14 14 14 14 10 13 11 10 13 10 8 7 3 3 1
7 7 7 7 8 8 8 9 10 10 10 16 12 15 22 21 17 19 20 19 15 12 13 12 11 10 11 11 11 8 11 15 16 11 10 8 6 11 12 10 9 8 11 12
6 5 5 7 7 8 9 9 9 11 8 12 13 18 20 21 21 19 17 18 16 13 13 12 12 11 10 11 12 11 10 7 11 11 9 13 12 12 10 10 10 10 14 10
8 7 6 7 7 7 7 6 7 8 10 8 8 10 17 14 16 16 19 21 20 19 17 15 15 13 11 11 13 13 10 10 9 12 10 10 10 10 11 10 11 12 13 12
9 8 7 6 6 6 6 5 4 5 4 3 6 6 6 5 12 12 14 17 21 17 16 18 15 16 15 13 13 14 14 13 12 10 12 13 14 15 16 15 15 14 14 11
10 9 7 7 7 7 7 6 5 6 4 2 1 3 4 5 6 5 11 15 17 19 17 18 18 15 17 18 17 16 14 14 15 16 16 17 18 17 16 17 17 19 16 16
12 10 9 8 9 7 6 6 8 9 6 7 2 1 2 5 6 6 8 8 9 13 17 17 17 19 19 20 20 18 18 20 24 23 22 22 21 19 20 19 19 19 20 21
14 12 11 11 11 12 9 7 9 7 7 5 5 7 8 8 3 5 7 9 12 9 9 12 14 17 20 22 22 24 23 23 21 21 27 29 27 25 22 21 21 22 20 20
15 14 13 12 11 14 11 9 7 8 9 7 6 4 5 6 8 9 11 15 12 11 10 8 6 9 12 17 21 23 23 26 28 28 25 24 30 33 33 33 29 25 22 24
17 16 15 14 15 12 11 13 12 11 8 8 6 7 9 7 7 7 2 3 2 3 5 10 14 16 18 17 19 21 23 24 24 24 26 29 30 33 29 31 34 35 32 33
19 19 18 18 17 17 15 12 13 16 16 10 10 9 6 5 6 5 6 6 4 4 0 4 3 5 9 11 15 17 17 20 17 19 24 26 27 28 33 35 34 29 36 35
19 19 18 19 18 16 16 13 16 12 13 12 8 9 7 6 6 6 5 6 4 5 2 2 0 6 6 4 6 12 16 18 18 22 20 21 24 25 27 26 29 28 27 29
Wind_Direction
278 299 285 284 294 304 249 256 248 267 132 171 173 169 186 175 153 165 186 175 185 188 161 155 171 178 176 190 195 186 190 214 220 221 218 223 230 232 227 234 235 225 213 230
286 261 246 271 251 287 244 245 258 272 285 160 110 80 357 156 121 121 174 182 176 187 181 186 186 183 170 188 206 219 222 241 241 233 232 227 235 231 216 221 220 225 214 229
299 358 339 263 297 285 293 252 286 284 96 91 64 84 295 312 188 114 129 130 154 167 173 186 196 199 199 214 216 220 230 243 247 249 237 237 238 240 207 209 202 214 212 218
282 358 252 24 10 18 357 17 6 46 62 88 123 152 169 187 198 142 145 156 147 132 163 174 187 187 183 194 208 213 210 223 230 227 235 231 220 214 205 201 196 206 218 226
62 338 295 226 24 13 6 327 8 37 81 92 100 98 87 152 165 158 142 145 167 184 152 174 164 173 182 193 184 174 184 188 193 199 200 209 219 177 156 145 153 164 130 64
318 297 293 318 319 317 339 53 346 35 82 40 359 113 159 137 128 121 134 156 156 159 177 178 155 160 170 173 189 186 183 187 191 194 197 223 223 224 232 216 218 241 254 260
277 151 90 264 314 351 67 354 339 360 84 148 162 300 143 134 134 145 157 143 151 160 166 168 178 185 180 173 167 173 192 202 199 205 215 215 191 196 210 202 200 208 219 218
348 318 117 190 45 22 338 298 333 346 25 110 105 132 130 139 148 152 138 133 140 149 151 162 174 178 174 175 174 179 183 192 179 159 149 163 184 197 211 212 203 191 196 196
143 246 127 74 95 82 16 21 345 342 36 104 115 128 137 137 143 136 131 130 134 134 125 122 130 156 163 150 151 158 161 163 168 163 162 163 175 190 160 145 140 121 102 104
323 134 130 107 102 65 32 20 345 5 9 103 125 132 137 132 124 118 117 122 123 123 122 119 118 116 121 121 122 125 137 144 139 138 143 125 120 131 149 142 130 149 161 176
293 187 138 162 92 30 26 9 5 28 42 93 134 133 146 137 135 135 130 126 123 121 123 123 124 130 130 130 134 132 128 131 126 147 159 158 176 178 183 178 168 167 183 193
337 78 118 114 118 60 348 354 349 8 56 80 139 141 166 156 155 155 145 141 137 128 124 119 122 128 136 135 122 129 138 134 126 175 228 202 203 208 202 203 200 202 219 240
38 134 124 100 157 274 298 304 350 345 113 108 138 164 171 167 162 152 146 140 132 121 121 120 116 114 127 145 141 149 171 151 158 160 186 244 197 199 201 196 208 222 230 225
258 227 241 257 266 213 248 269 282 311 139 139 163 170 176 166 157 148 147 149 139 126 118 111 112 121 123 134 156 166 179 175 146 144 175 195 175 155 150 153 176 181 176 171
233 229 252 126 208 258 249 262 235 234 167 152 157 172 179 173 165 165 160 161 158 149 140 106 128 122 145 153 174 172 154 158 149 172 177 182 173 167 148 130 206 166 144 163
218 221 234 247 245 252 250 256 251 264 179 170 171 181 179 186 178 179 178 178 188 202 197 197 198 212 221 213 208 176 175 178 162 185 196 182 175 153 167 174 182 200 93 293
200 199 220 241 250 250 249 252 254 247 206 170 183 192 179 180 195 198 200 205 209 210 211 213 221 230 227 221 212 205 205 196 189 179 193 173 199 190 172 176 181 187 212 221
216 236 248 253 252 237 238 243 250 260 258 205 195 191 198 189 190 202 206 203 206 203 220 224 220 228 219 209 188 195 198 217 219 208 208 195 197 189 193 204 208 204 220 252
208 221 235 233 232 234 236 231 239 244 238 207 183 194 212 206 204 218 219 211 213 205 216 223 223 224 222 217 203 191 206 225 227 205 194 216 223 205 222 226 214 217 238 250
203 215 218 216 218 216 206 211 219 218 220 241 228 218 202 222 228 216 219 217 208 212 224 233 227 221 221 217 209 201 206 217 224 235 221 214 230 226 218 220 221 222 223 239
202 203 207 200 199 195 196 187 195 178 149 155 115 226 236 254 234 214 228 228 226 213 228 220 227 242 228 224 219 216 216 225 227 226 230 231 224 232 234 229 236 234 222 230
199 200 198 195 190 193 192 193 213 210 201 219 152 61 224 246 236 244 238 235 251 233 232 236 229 237 226 226 232 240 231 238 229 227 233 238 239 238 234 235 235 238 240 238
202 200 198 200 203 181 184 175 167 179 187 208 248 269 254 254 236 224 236 233 245 236 220 234 237 234 237 239 236 240 249 244 246 247 241 239 238 239 233 234 241 244 243 245
203 200 199 203 204 180 186 197 186 197 214 248 209 244 262 266 263 254 253 241 244 258 235 256 221 231 233 241 246 248 252 248 248 243 246 245 242 241 243 250 240 231 244 243
202 202 200 206 208 186 197 218 230 228 201 219 229 219 254 251 244 258 19 90 264 261 262 268 272 272 269 257 252 259 267 271 269 266 262 258 254 246 238 246 245 240 238 249
203 206 207 203 210 213 207 204 215 215 210 217 210 226 233 224 218 246 267 238 271 305 233 268 250 269 269 271 263 260 259 255 262 270 265 261 257 253 249 254 257 253 254 254
210 212 214 202 207 222 229 209 209 222 201 209 230 236 226 234 228 215 245 250 232 204 189 258 196 11 5 325 290 268 269 265 264 266 270 262 258 256 254 252 252 254 252 255
Height
1473 1478 1473 1476 1472 1460 1459 1454 1463 1449 1459 1461 1461 1467 1476 1478 1476 1483 1492 1498 1500 1511 1521 1527 1531 1534 1539 1543 1547 1549 1555 1560 1562 1565 1567 1570 1575 1577 1579 1579 1580 1582 1585 1585
1481 1473 1475 1477 1470 1462 1451 1451 1450 1447 1452 1451 1469 1467 1493 1490 1490 1489 1495 1502 1506 1515 1519 1524 1526 1530 1536 1542 1545 1547 1551 1555 1560 1562 1564 1566 1568 1572 1573 1575 1578 1580 1582 1584
1490 1475 1482 1484 1472 1471 1455 1447 1453 1461 1473 1474 1478 1481 1500 1499 1500 1502 1501 1507 1509 1511 1514 1517 1520 1526 1532 1535 1541 1545 1550 1552 1556 1557 1558 1560 1563 1566 1558 1570 1574 1576 1576 1578
1497 1500 1517 1488 1476 1480 1488 1476 1470 1473 1478 1480 1487 1494 1499 1504 1506 1508 1502 1503 1510 1510 1513 1517 1522 1526 1530 1533 1538 1543 1546 1549 1552 1554 1557 1558 1559 1561 1563 1566 1570 1571 1573 1578
1503 1528 1501 1484 1489 1494 1497 1492 1488 1492 1491 1494 1490 1498 1505 1505 1507 1509 1510 1505 1507 1511 1515 1515 1521 1526 1529 1532 1537 1540 1544 1548 1552 1554 1557 1558 1558 1557 1559 1564 1565 1571 1573 1576
1493 1510 1533 1519 1501 1498 1497 1503 1490 1492 1499 1508 1505 1497 1503 1508 1509 1510 1513 1507 1508 1511 1515 1518 1522 1524 1527 1531 1535 1539 1544 1549 1552 1554 1557 1559 1559 1561 1562 1564 1566 1570 1574 1575
1490 1504 1520 1514 1510 1503 1514 1515 1501 1496 1500 1504 1504 1512 1506 1508 1510 1512 1511 1508 1511 1513 1516 1519 1523 1527 1529 1534 1537 1540 1545 1548 1552 1553 1557 1559 1559 1561 1562 1563 1567 1569 1573 1575
1494 1495 1509 1506 1509 1529 1511 1508 1504 1499 1498 1502 1501 1517 1515 1514 1516 1514 1512 1509 1512 1515 1517 1522 1525 1528 1530 1535 1538 1539 1543 1547 1550 1552 1555 1558 1559 1561 1563 1565 1567 1571 1573 1574
1512 1509 1504 1501 1505 1507 1508 1505 1504 1500 1502 1500 1503 1512 1520 1517 1515 1514 1512 1514 1515 1519 1520 1525 1528 1530 1531 1534 1537 1539 1543 1547 1550 1552 1555 1559 1559 1561 1565 1565 1567 1570 1573 1575
1495 1497 1498 1501 1505 1508 1510 1509 1509 1506 1505 1500 1505 1513 1511 1516 1517 1518 1517 1520 1522 1524 1526 1529 1532 1533 1533 1534 1537 1540 1546 1549 1550 1552 1556 1559 1560 1560 1564 1566 1568 1572 1573 1574
1497 1495 1500 1503 1506 1509 1509 1510 1510 1511 1511 1511 1512 1513 1515 1518 1521 1522 1523 1525 1527 1529 1530 1532 1534 1535 1536 1538 1541 1543 1547 1548 1551 1554 1558 1560 1560 1561 1564 1567 1568 1570 1571 1572
1500 1500 1503 1507 1508 1510 1510 1511 1510 1510 1512 1514 1512 1515 1517 1518 1520 1522 1527 1529 1530 1531 1533 1534 1536 1537 1539 1541 1544 1545 1547 1549 1553 1557 1560 1559 1561 1564 1565 1567 1568 1569 1570 1572
1501 1503 1505 1507 1509 1510 1511 1512 1510 1509 1511 1514 1513 1515 1518 1519 1521 1525 1529 1530 1531 1531 1533 1534 1536 1539 1540 1543 1546 1549 1550 1553 1557 1560 1561 1561 1560 1561 1562 1565 1566 1568 1570 1571
1504 1504 1507 1507 1508 1509 1510 1510 1511 1510 1510 1512 1513 1516 1516 1518 1522 1525 1528 1530 1532 1533 1535 1537 1539 1540 1541 1544 1547 1549 1551 1553 1555 1558 1561 1563 1564 1562 1564 1564 1565 1567 1568 1570
1504 1505 1505 1506 1507 1509 1510 1510 1510 1510 1509 1512 1513 1514 1518 1519 1522 1525 1528 1531 1533 1535 1536 1538 1540 1541 1543 1544 1549 1550 1551 1553 1555 1558 1560 1565 1565 1563 1565 1564 1564 1566 1569 1571
1502 1504 1505 1506 1507 1509 1509 1510 1510 1510 1508 1510 1513 1515 1516 1520 1523 1525 1527 1528 1531 1532 1534 1536 1538 1540 1541 1544 1547 1550 1549 1552 1555 1558 1561 1562 1560 1558 1561 1565 1567 1567 1569 1570
1500 1502 1504 1506 1506 1507 1508 1509 1509 1509 1509 1509 1510 1516 1516 1517 1522 1525 1527 1530 1531 1533 1535 1536 1538 1539 1541 1542 1545 1548 1549 1550 1550 1554 1556 1559 1560 1559 1559 1563 1564 1567 1568 1569
1500 1501 1503 1504 1504 1504 1506 1507 1508 1508 1509 1506 1509 1515 1517 1517 1517 1522 1525 1528 1531 1533 1534 1535 1536 1537 1539 1540 1543 1547 1547 1548 1550 1552 1554 1554 1556 1557 1560 1563 1564 1565 1565 1567
1499 1500 1501 1502 1503 1504 1505 1505 1507 1508 1508 1509 1509 1509 1514 1514 1516 1519 1523 1525 1527 1530 1531 1532 1533 1535 1537 1539 1540 1543 1545 1547 1547 1548 1552 1553 1553 1556 1558 1560 1562 1563 1562 1563
1497 1499 1500 1501 1502 1503 1504 1505 1506 1507 1508 1507 1508 1510 1512 1513 1516 1518 1520 1522 1524 1527 1529 1529 1531 1533 1535 1537 1538 1540 1543 1546 1546 1546 1547 1550 1552 1553 1554 1556 1557 1559 1561 1561
1495 1497 1499 1500 1501 1502 1503 1504 1505 1507 1509 1509 1510 1511 1512 1513 1516 1516 1517 1519 1520 1523 1526 1526 1527 1530 1532 1534 1536 1537 1540 1542 1543 1544 1545 1546 1549 1549 1550 1552 1554 1555 1557 1558
1493 1495 1497 1499 1500 1501 1502 1503 1505 1507 1509 1510 1512 1513 1513 1514 1515 1515 1515 1517 1518 1520 1521 1522 1525 1526 1529 1530 1532 1533 1534 1536 1536 1538 1540 1541 1542 1543 1545 1547 1549 1551 1552 1553
1490 1492 1494 1496 1497 1499 1502 1504 1505 1507 1508 1510 1511 1512 1513 1514 1514 1514 1515 1515 1516 1517 1519 1519 1519 1521 1524 1525 1527 1529 1529 1531 1532 1532 1533 1535 1536 1539 1540 1542 1544 1546 1547 1548
1486 1489 1491 1494 1495 1496 1499 1502 1503 1505 1506 1507 1509 1510 1511 1512 1511 1511 1510 1509 1512 1514 1516 1515 1516 1518 1519 1520 1521 1522 1522 1523 1524 1524 1525 1527 1529 1531 1533 1534 1537 1537 1541 1542
1482 1485 1488 1490 1492 1493 1495 1499 1501 1502 1504 1506 1506 1508 1508 1508 1510 1509 1509 1510 1511 1512 1513 1514 1513 1514 1514 1515 1516 1516 1516 1516 1516 1517 1517 1519 1520 1522 1522 1525 1527 1530 1532 1535
1478 1480 1482 1485 1487 1490 1491 1493 1495 1498 1499 1501 1502 1504 1504 1506 1506 1507 1508 1509 1509 1509 1510 1511 1510 1510 1511 1511 1511 1511 1511 1510 1511 1510 1510 1511 1512 1513 1515 1517 1518 1521 1524 1525
1475 1477 1478 1480 1483 1485 1486 1489 1492 1492 1494 1497 1498 1500 1501 1503 1504 1506 1506 1507 1507 1508 1510 1510 1509 1509 1508 1507 1506 1505 1505 1505 1506 1505 1504 1503 1504 1505 1506 1508 1510 1513 1515 1517